Regional Weather Roundup
Issued by NWS Albany, NY

Home | Current Version | Previous Version | Text Only | Print | Product List | Glossary On
Versions: 1 2 3 4 5 6 7 8 9 10 11 12 13 14 15 16 17 18 19 20 21 22 23 24 25 26 27 28 29 30 31 32 33 34 35 36 37 38 39 40 41 42 43 44 45 46 47 48 49 50
821
ASUS41 KALY 072210
RWRALY

NEW YORK STATE HOURLY WEATHER ROUNDUP
NATIONAL WEATHER SERVICE ALBANY NY
500 PM EST SUN FEB 07 2016

NOTE: "FAIR" INDICATES FEW OR NO CLOUDS BELOW 12,000 FEET WITH NO
SIGNIFICANT WEATHER AND/OR NO OBSTRUCTIONS TO VISIBILITY.

NYZ032-033-038>043-046>054-057>066-NYZ062>081-072300-
EAST


CITY           SKY/WX    TMP DP  RH WIND       PRES   REMARKS
ALBANY         PTCLDY    43  19  38 NE3       30.06S
GLENS FALLS    CLEAR     40  21  46 NE3       30.07S
POUGHKEEPSIE   CLOUDY    47  18  31 CALM      30.02S
NEWBURGH       CLEAR     45  21  39 VRB5      30.02F
MONTGOMERY     CLOUDY    43  20  39 E5        30.00F
WHITE PLAINS   CLOUDY    40  20  44 E6        30.02F
ISLIP          CLOUDY    39  27  62 NE5       30.03S
NEW YORK CITY  CLOUDY    42  28  57 NE9       30.04F
CENTRAL PARK   MOCLDY    43  21  41 E6        30.05F
$$

NYZ005>009-017-018-044>046-055-056-072300-
CENTRAL


CITY           SKY/WX    TMP DP  RH WIND       PRES   REMARKS
FULTON         CLEAR     44  24  45 SE3       30.00S
SYRACUSE       MOCLDY    39  24  55 NE8       29.99F WCI  33
ROME           CLEAR     41  23  48 E6        30.02F
ELMIRA         CLEAR     44  24  45 NW5       29.96S
BINGHAMTON     CLEAR     40  20  44 SW3       29.95S
MONTICELLO     CLEAR     41  19  42 SE3       29.99F
$$

NYZ026>034-041>043-072300-
NORTH


CITY           SKY/WX    TMP DP  RH WIND       PRES   REMARKS
WATERTOWN      CLOUDY    38  26  62 E5        30.02S WCI  34
FORT DRUM      NOT AVBL
MASSENA        CLOUDY    21   8  57 NE17      30.13F WCI   7
SARANAC LAKE   PTCLDY    26  21  81 E9        30.00S WCI  17
PLATTSBURGH    CLOUDY    23  11  60 N10       30.16S WCI  12
$$

NYZ001>004-010>016-019>021-072300-
WEST


CITY           SKY/WX    TMP DP  RH WIND       PRES   REMARKS
NIAGARA FALLS  MOCLDY    46  27  47 S7        29.89F
BUFFALO        MOCLDY    46  26  45 S5        29.90F
DUNKIRK        CLOUDY    46  28  49 S7        29.89F
JAMESTOWN      CLOUDY    43  23  45 S6        29.88S
WELLSVILLE     CLEAR     42  23  46 VRB5      29.91F
ROCHESTER      MOCLDY    46  26  45 S5        29.94F
PENN YAN       CLEAR     41  26  55 SE7       29.96S
$$

             KEY
       WCI = WIND CHILL INDEX
       VSB = VISIBILITY
       HX  = HEAT INDEX
$$




USA.gov is the U.S. government's official web portal to all federal, state and local government web resources and services.